Heat Advisory
until 8:00 PM CDT
| Temperature (°F) | Max | Average | Min |
|---|---|---|---|
| Max Temperature | 99 | 91.03 | 82 |
| Avg Temperature | 86.31 | 80.34 | 72 |
| Min Temperature | 79 | 70.41 | 61 |
| Precipitation (in) | Max | Average | Min | Sum |
|---|---|---|---|---|
| Precipitation | 1.42 | 0.05 | 0 | 1.57 |
| Dew Point (°F) | Max | Average | Min |
|---|---|---|---|
| Dew Point | 75.21 | 66.58 | 54.38 |
| Wind (mph) | Max | Average | Min |
|---|---|---|---|
| Wind | 32 | 12.25 | 5 |
| Gust Wind | 49 | 20.68 | 16 |
| Sea Level Pressure (in) | Max | Average | Min |
|---|---|---|---|
| Sea Level Pressure | 29.86 | 29.75 | 29.58 |
| Date | Temp High/Low | Dew Pt High/Low | Humidity | Wind | Max Wind | Wind Gust | Pressure | Precip. | Condition |
|---|---|---|---|---|---|---|---|---|---|
| 8/1/2024 | 95 °F / 77 °F | 77 °F / 72 °F | 70 % | 17 mph | - | 29.73 in | 0 in | ||
| 8/2/2024 | 93 °F / 79 °F | 75 °F / 67 °F | 62 % | 12 mph | - | 29.68 in | 0 in | ||
| 8/3/2024 | 90 °F / 73 °F | 71 °F / 68 °F | 68 % | 8 mph | - | 29.68 in | 0 in | ||
| 8/4/2024 | 93 °F / 72 °F | 74 °F / 67 °F | 70 % | 10 mph | - | 29.71 in | 0 in | ||
| 8/5/2024 | 95 °F / 71 °F | 73 °F / 68 °F | 68 % | 5 mph | - | 29.73 in | 0 in | ||
| 8/6/2024 | 99 °F / 75 °F | 72 °F / 67 °F | 59 % | 12 mph | - | 29.65 in | 0 in | ||
| 8/7/2024 | 84 °F / 71 °F | 74 °F / 63 °F | 70 % | 13 mph | - | 29.6 in | 0 in | ||
| 8/8/2024 | 91 °F / 67 °F | 70 °F / 64 °F | 67 % | 14 mph | - | 29.59 in | 0 in | ||
| 8/9/2024 | 87 °F / 72 °F | 68 °F / 57 °F | 64 % | 13 mph | - | 29.73 in | 0 in | ||
| 8/10/2024 | 83 °F / 65 °F | 61 °F / 54 °F | 59 % | 13 mph | - | 29.87 in | 0 in | ||
| 8/11/2024 | 83 °F / 67 °F | 64 °F / 58 °F | 63 % | 7 mph | - | 29.83 in | 0 in | ||
| 8/12/2024 | 84 °F / 70 °F | 68 °F / 61 °F | 68 % | 8 mph | - | 29.78 in | 0 in | ||
| 8/13/2024 | 91 °F / 69 °F | 74 °F / 66 °F | 70 % | 7 mph | - | 29.76 in | 0 in | ||
| 8/14/2024 | 83 °F / 73 °F | 78 °F / 41 °F | 88 % | 12 mph | - | 29.77 in | 1.42 in | ||
| 8/15/2024 | 94 °F / 73 °F | 78 °F / 72 °F | 80 % | 13 mph | - | 29.68 in | 0.15 in | ||
| 8/16/2024 | 95 °F / 73 °F | 77 °F / 65 °F | 71 % | 12 mph | - | 29.66 in | 0 in | ||
| 8/17/2024 | 93 °F / 70 °F | 76 °F / 67 °F | 70 % | 32 mph | - | 29.63 in | 0 in | ||
| 8/18/2024 | 93 °F / 76 °F | 74 °F / 65 °F | 64 % | 10 mph | - | 29.65 in | 0 in | ||
| 8/19/2024 | 88 °F / 70 °F | 68 °F / 62 °F | 66 % | 10 mph | - | 29.74 in | 0 in | ||
| 8/20/2024 | 84 °F / 67 °F | 64 °F / 50 °F | 57 % | 13 mph | - | 29.82 in | 0 in | ||
| 8/21/2024 | 82 °F / 62 °F | 59 °F / 54 °F | 60 % | 15 mph | - | 29.86 in | 0 in | ||
| 8/22/2024 | 85 °F / 61 °F | 58 °F / 52 °F | 56 % | 12 mph | - | 29.84 in | 0 in | ||
| 8/23/2024 | 93 °F / 65 °F | 70 °F / 59 °F | 64 % | 12 mph | - | 29.83 in | 0 in | ||
| 8/24/2024 | 92 °F / 69 °F | 68 °F / 60 °F | 61 % | 18 mph | - | 29.85 in | 0 in | ||
| 8/25/2024 | 93 °F / 66 °F | 64 °F / 58 °F | 58 % | 9 mph | - | 29.87 in | 0 in | ||
| 8/26/2024 | 96 °F / 67 °F | 66 °F / 61 °F | 57 % | 9 mph | - | 29.85 in | 0 in | ||
| 8/27/2024 | 98 °F / 71 °F | 67 °F / 62 °F | 54 % | 10 mph | - | 29.79 in | 0 in | ||
| 8/28/2024 | 99 °F / 70 °F | 67 °F / 58 °F | 53 % | 9 mph | - | 29.75 in | 0 in | ||
| 8/29/2024 | 99 °F / 70 °F | 70 °F / 64 °F | 55 % | 16 mph | - | 29.75 in | 0 in | ||
| 8/30/2024 | 88 °F / 72 °F | 72 °F / 66 °F | 70 % | 16 mph | - | 29.78 in | 0 in | ||
| 8/31/2024 | 91 °F / 72 °F | 72 °F / 68 °F | 73 % | 10 mph | - | 29.74 in | 0 in |